Weather History for KROW - February, 2013

Change the Weather History Date:

Saturday, February 2, 2013

  Actual Average Record
Temperature  
Mean Temperature 47 °F 43 °F  
Max Temperature 62 °F 58 °F 79 °F (2003)
Min Temperature 31 °F 28 °F -6 °F (1951)
Degree Days  
Heating Degree Days 18 22  
Month to date heating degree days 37 44  
Since 1 July heating degree days 1950 2210  
Cooling Degree Days 0 0  
Month to date cooling degree days 0 0  
Year to date cooling degree days 0 0  
Moisture  
Dew Point 13 °F    
Average Humidity 27    
Maximum Humidity 38    
Minimum Humidity 15    
Precipitation  
Precipitation 0.00 in 0.02 in 0.49 in (1956)
Month to date precipitation 0.00 0.03  
Year to date precipitation 0.41 0.41  
Sea Level Pressure  
Sea Level Pressure 30.25 in    
Wind  
Wind Speed 5 mph (NW)    
Max Wind Speed 14 mph    
Max Gust Speed 18 mph    
Visibility 10 miles    
Events      
T = Trace of Precipitation, MM = Missing Value Source: NWS Daily Summary

Daily Weather History Graph

Daily Weather History Graph

Search for Another Location

Airport or City:

Trip Planner

Search our weather history database for the weather conditions in past years. The results will help you decide how hot, cold, wet, or windy it might be!

Date:

Astronomy

Feb. 02, 2013 Rise Set
Actual Time 6:52 AM MST 5:31 PM MST
Civil Twilight 6:27 AM MST 5:57 PM MST
Nautical Twilight 5:57 AM MST 6:26 PM MST
Astronomical Twilight 5:28 AM MST 6:55 PM MST
Moon No Moon Rise 10:28 AM MST (2/2)
Length of Visible Light 11h 30m
Length of Day
10h 38m
Waning Gibbous, 59% of the Moon is Illuminated
Feb 2
Waning Gibbous
Feb 3
Last Quarter
Feb 10
New
Feb 17
First Quarter
Feb 25
Full

Hourly Weather History & Observations

Time (MST) Temp. Windchill Dew Point Humidity Pressure Visibility Wind Dir Wind Speed Gust Speed Precip Events Conditions
12:51 AM 32.0 °F 27.5 °F 8.1 °F 37% 30.12 in 10.0 mi SSE 4.6 mph - N/A   Clear
1:51 AM 37.0 °F 33.3 °F 10.9 °F 34% 30.12 in 10.0 mi NNW 4.6 mph - N/A   Clear
2:51 AM 41.0 °F 37.1 °F 15.1 °F 35% 30.13 in 10.0 mi North 5.8 mph - N/A   Clear
3:51 AM 44.1 °F 37.7 °F 15.1 °F 31% 30.15 in 10.0 mi NNW 12.7 mph - N/A   Clear
4:51 AM 37.0 °F 30.4 °F 14.0 °F 39% 30.18 in 10.0 mi NNE 9.2 mph - N/A   Clear
5:51 AM 39.0 °F 31.8 °F 14.0 °F 36% 30.22 in 10.0 mi North 11.5 mph - N/A   Clear
6:51 AM 35.1 °F 29.3 °F 12.9 °F 40% 30.27 in 10.0 mi North 6.9 mph - N/A   Clear
7:51 AM 37.9 °F - 14.0 °F 38% 30.30 in 10.0 mi Calm Calm - N/A   Clear
8:51 AM 44.1 °F 39.0 °F 16.0 °F 32% 30.30 in 10.0 mi North 9.2 mph - N/A   Clear
9:51 AM 50.0 °F - 18.0 °F 28% 30.32 in 10.0 mi NNE 9.2 mph - N/A   Clear
10:51 AM 53.1 °F - 19.0 °F 26% 30.32 in 10.0 mi NE 6.9 mph - N/A   Clear
11:51 AM 55.0 °F - 19.0 °F 24% 30.32 in 10.0 mi Variable 3.5 mph - N/A   Clear
12:51 PM 59.0 °F - 17.1 °F 20% 30.27 in 10.0 mi Calm Calm - N/A   Clear
1:51 PM 60.1 °F - 14.0 °F 16% 30.24 in 10.0 mi Calm Calm - N/A   Clear
2:51 PM 61.0 °F - 12.9 °F 15% 30.22 in 10.0 mi SE 5.8 mph - N/A   Clear
3:51 PM 60.1 °F - 12.0 °F 15% 30.21 in 10.0 mi Calm Calm - N/A   Clear
4:51 PM 59.0 °F - 12.9 °F 16% 30.23 in 10.0 mi South 5.8 mph - N/A   Clear
6:51 PM 48.9 °F - 12.9 °F 24% 30.28 in 10.0 mi WSW 5.8 mph - N/A   Clear
7:51 PM 45.0 °F 41.8 °F 10.9 °F 25% 30.29 in 10.0 mi West 5.8 mph - N/A   Clear
8:51 PM 41.0 °F 37.1 °F 10.9 °F 29% 30.28 in 10.0 mi WSW 5.8 mph - N/A   Clear
9:51 PM 35.1 °F 32.2 °F 10.0 °F 35% 30.29 in 10.0 mi South 3.5 mph - N/A   Clear
10:51 PM 32.0 °F 28.7 °F 9.0 °F 38% 30.29 in 10.0 mi SW 3.5 mph - N/A   Clear
11:51 PM 32.0 °F 28.7 °F 9.0 °F 38% 30.27 in 10.0 mi WSW 3.5 mph - N/A   Clear